owner,sensor,date,latitude,longitude,vertical_datum,wind_speed,wind_to_direction,wind_speed_of_gust,qcFlag 
TCOON,ioos:station:TCOON:003:1,2008-12-01T00:00:00Z,26.8015,-97.4706,0.0,4.4,36.0,5.7,'11111222,11111222,11111222' 
TCOON,ioos:station:TCOON:003:1,2008-12-01T02:00:00Z,26.8015,-97.4706,0.0,3.0,41.0,3.3,'11111222,11111222,11111222' 
TCOON,ioos:station:TCOON:003:1,2008-12-01T03:00:00Z,26.8015,-97.4706,0.0,2.4,29.0,2.6,'11111222,11111222,11111222' 
TCOON,ioos:station:TCOON:003:1,2008-12-01T04:00:00Z,26.8015,-97.4706,0.0,2.1,354.0,2.6,'11111222,11111222,11111222' 
TCOON,ioos:station:TCOON:003:1,2008-12-01T05:00:00Z,26.8015,-97.4706,0.0,3.5,313.0,3.9,'11111222,11111222,11111222' 
TCOON,ioos:station:TCOON:003:1,2008-12-01T06:00:00Z,26.8015,-97.4706,0.0,4.3,318.0,5.0,'11111222,11111222,11111222' 
TCOON,ioos:station:TCOON:003:1,2008-12-01T07:00:00Z,26.8015,-97.4706,0.0,3.7,298.0,4.4,'11111222,11111222,11111222' 
TCOON,ioos:station:TCOON:003:1,2008-12-01T08:00:00Z,26.8015,-97.4706,0.0,4.2,318.0,4.7,'11111222,11111222,11111222' 
TCOON,ioos:station:TCOON:003:1,2008-12-01T09:00:00Z,26.8015,-97.4706,0.0,4.2,298.0,5.4,'11111222,11111222,11111222' 
TCOON,ioos:station:TCOON:003:1,2008-12-01T10:00:00Z,26.8015,-97.4706,0.0,5.1,318.0,5.9,'11111222,11111222,11111222' 
TCOON,ioos:station:TCOON:003:1,2008-12-01T11:00:00Z,26.8015,-97.4706,0.0,5.1,308.0,6.1,'11111222,11111222,11111222' 
TCOON,ioos:station:TCOON:003:1,2008-12-01T12:00:00Z,26.8015,-97.4706,0.0,4.7,305.0,5.7,'11111222,11111222,11111222' 
TCOON,ioos:station:TCOON:003:1,2008-12-01T13:00:00Z,26.8015,-97.4706,0.0,5.1,319.0,5.8,'11111222,11111222,11111222' 
TCOON,ioos:station:TCOON:003:1,2008-12-01T14:00:00Z,26.8015,-97.4706,0.0,7.2,326.0,8.4,'11111222,11111222,11111222' 
TCOON,ioos:station:TCOON:003:1,2008-12-01T15:00:00Z,26.8015,-97.4706,0.0,6.2,324.0,7.3,'11111222,11111222,11111222' 
TCOON,ioos:station:TCOON:003:1,2008-12-01T16:00:00Z,26.8015,-97.4706,0.0,7.4,333.0,8.3,'11111222,11111222,11111222' 
TCOON,ioos:station:TCOON:003:1,2008-12-01T17:00:00Z,26.8015,-97.4706,0.0,4.7,327.0,6.1,'11111222,11111222,11111222' 
TCOON,ioos:station:TCOON:003:1,2008-12-01T18:00:00Z,26.8015,-97.4706,0.0,4.3,334.0,5.0,'11111222,11111222,11111222' 
TCOON,ioos:station:TCOON:003:1,2008-12-01T19:00:00Z,26.8015,-97.4706,0.0,5.4,332.0,6.2,'11111222,11111222,11111222' 
TCOON,ioos:station:TCOON:003:1,2008-12-01T20:00:00Z,26.8015,-97.4706,0.0,5.8,325.0,7.0,'11111222,11111222,11111222' 
TCOON,ioos:station:TCOON:003:1,2008-12-01T21:00:00Z,26.8015,-97.4706,0.0,5.7,331.0,7.3,'11111222,11111222,11111222' 
TCOON,ioos:station:TCOON:003:1,2008-12-01T22:00:00Z,26.8015,-97.4706,0.0,5.9,332.0,6.7,'11111222,11111222,11111222' 
TCOON,ioos:station:TCOON:003:1,2008-12-01T23:00:00Z,26.8015,-97.4706,0.0,3.5,323.0,3.9,'11111222,11111222,11111222' 
TCOON,ioos:station:TCOON:003:1,2008-12-02T00:00:00Z,26.8015,-97.4706,0.0,3.0,340.0,3.5,'11111222,11111222,11111222' 
TCOON,ioos:station:TCOON:003:1,2008-12-02T01:00:00Z,26.8015,-97.4706,0.0,1.7,293.0,1.8,'11111222,11111222,11111222' 
TCOON,ioos:station:TCOON:003:1,2008-12-02T02:00:00Z,26.8015,-97.4706,0.0,2.3,297.0,2.5,'11111222,11111222,11111222' 
TCOON,ioos:station:TCOON:003:1,2008-12-02T03:00:00Z,26.8015,-97.4706,0.0,2.6,357.0,3.4,'11111222,11111222,11111222' 
TCOON,ioos:station:TCOON:003:1,2008-12-02T04:00:00Z,26.8015,-97.4706,0.0,3.8,358.0,4.5,'11111222,11111222,11111222' 
TCOON,ioos:station:TCOON:003:1,2008-12-02T05:00:00Z,26.8015,-97.4706,0.0,1.9,307.0,2.6,'11111222,11111222,11111222' 
TCOON,ioos:station:TCOON:003:1,2008-12-02T06:00:00Z,26.8015,-97.4706,0.0,2.4,267.0,2.6,'11111222,11111222,11111222' 
TCOON,ioos:station:TCOON:003:1,2008-12-02T07:00:00Z,26.8015,-97.4706,0.0,2.7,252.0,3.2,'11111222,11111222,11111222' 
TCOON,ioos:station:TCOON:003:1,2008-12-02T08:00:00Z,26.8015,-97.4706,0.0,1.2,274.0,1.5,'11111222,11111222,11111222' 
TCOON,ioos:station:TCOON:003:1,2008-12-02T09:00:00Z,26.8015,-97.4706,0.0,0.8,225.0,1.0,'11111222,11111222,11111222' 
TCOON,ioos:station:TCOON:003:1,2008-12-02T10:00:00Z,26.8015,-97.4706,0.0,2.3,197.0,2.6,'11111222,11111222,11111222' 
TCOON,ioos:station:TCOON:003:1,2008-12-02T11:00:00Z,26.8015,-97.4706,0.0,3.8,187.0,4.6,'11111222,11111222,11111222' 
TCOON,ioos:station:TCOON:003:1,2008-12-02T12:00:00Z,26.8015,-97.4706,0.0,2.4,203.0,2.7,'11111222,11111222,11111222' 
TCOON,ioos:station:TCOON:003:1,2008-12-02T13:00:00Z,26.8015,-97.4706,0.0,4.3,194.0,5.8,'11111222,11111222,11111222' 
TCOON,ioos:station:TCOON:003:1,2008-12-02T14:00:00Z,26.8015,-97.4706,0.0,1.6,200.0,2.1,'11111222,11111222,11111222' 
TCOON,ioos:station:TCOON:003:1,2008-12-02T15:00:00Z,26.8015,-97.4706,0.0,3.6,168.0,4.1,'11111222,11111222,11111222' 
TCOON,ioos:station:TCOON:003:1,2008-12-02T16:00:00Z,26.8015,-97.4706,0.0,6.5,164.0,7.8,'11111222,11111222,11111222' 
TCOON,ioos:station:TCOON:003:1,2008-12-02T17:00:00Z,26.8015,-97.4706,0.0,7.1,160.0,8.2,'11111222,11111222,11111222' 
TCOON,ioos:station:TCOON:003:1,2008-12-02T18:00:00Z,26.8015,-97.4706,0.0,8.8,164.0,10.0,'11111222,11111222,11111222' 
TCOON,ioos:station:TCOON:003:1,2008-12-02T19:00:00Z,26.8015,-97.4706,0.0,9.5,162.0,11.3,'11111222,11111222,11111222' 
TCOON,ioos:station:TCOON:003:1,2008-12-02T20:00:00Z,26.8015,-97.4706,0.0,10.9,165.0,12.9,'11111222,11111222,11111222' 
TCOON,ioos:station:TCOON:003:1,2008-12-02T21:00:00Z,26.8015,-97.4706,0.0,11.2,166.0,13.3,'11111222,11111222,11111222' 
TCOON,ioos:station:TCOON:003:1,2008-12-02T22:00:00Z,26.8015,-97.4706,0.0,10.0,169.0,11.2,'11111222,11111222,11111222' 
TCOON,ioos:station:TCOON:003:1,2008-12-02T23:00:00Z,26.8015,-97.4706,0.0,9.4,171.0,10.5,'11111222,11111222,11111222' 
TCOON,ioos:station:TCOON:003:1,2008-12-03T00:00:00Z,26.8015,-97.4706,0.0,6.7,179.0,8.0,'11111222,11111222,11111222' 
TCOON,ioos:station:TCOON:003:1,2008-12-03T01:00:00Z,26.8015,-97.4706,0.0,6.9,178.0,8.0,'11111222,11111222,11111222' 
TCOON,ioos:station:TCOON:003:1,2008-12-03T02:00:00Z,26.8015,-97.4706,0.0,6.6,180.0,7.7,'11111222,11111222,11111222' 
TCOON,ioos:station:TCOON:003:1,2008-12-03T03:00:00Z,26.8015,-97.4706,0.0,7.2,181.0,8.1,'11111222,11111222,11111222' 
TCOON,ioos:station:TCOON:003:1,2008-12-03T05:00:00Z,26.8015,-97.4706,0.0,8.2,175.0,10.0,'11111222,11111222,11111222' 
TCOON,ioos:station:TCOON:003:1,2008-12-03T06:00:00Z,26.8015,-97.4706,0.0,6.7,181.0,7.4,'11111222,11111222,11111222' 
TCOON,ioos:station:TCOON:003:1,2008-12-03T07:00:00Z,26.8015,-97.4706,0.0,5.1,188.0,5.6,'11111222,11111222,11111222' 
TCOON,ioos:station:TCOON:003:1,2008-12-03T08:00:00Z,26.8015,-97.4706,0.0,3.5,190.0,3.9,'11111222,11111222,11111222' 
TCOON,ioos:station:TCOON:003:1,2008-12-03T09:00:00Z,26.8015,-97.4706,0.0,4.2,175.0,4.7,'11111222,11111222,11111222' 
TCOON,ioos:station:TCOON:003:1,2008-12-03T10:00:00Z,26.8015,-97.4706,0.0,5.1,184.0,5.5,'11111222,11111222,11111222' 
TCOON,ioos:station:TCOON:003:1,2008-12-03T11:00:00Z,26.8015,-97.4706,0.0,8.0,184.0,9.4,'11111222,11111222,11111222' 
TCOON,ioos:station:TCOON:003:1,2008-12-03T12:00:00Z,26.8015,-97.4706,0.0,9.4,183.0,11.0,'11111222,11111222,11111222' 
TCOON,ioos:station:TCOON:003:1,2008-12-03T13:00:00Z,26.8015,-97.4706,0.0,9.1,191.0,10.5,'11111222,11111222,11111222' 
TCOON,ioos:station:TCOON:003:1,2008-12-03T14:00:00Z,26.8015,-97.4706,0.0,10.8,199.0,12.7,'11111222,11111222,11111222' 
TCOON,ioos:station:TCOON:003:1,2008-12-03T15:00:00Z,26.8015,-97.4706,0.0,10.7,196.0,13.0,'11111222,11111222,11111222' 
TCOON,ioos:station:TCOON:003:1,2008-12-03T16:00:00Z,26.8015,-97.4706,0.0,10.7,198.0,12.9,'11111222,11111222,11111222' 
TCOON,ioos:station:TCOON:003:1,2008-12-03T17:00:00Z,26.8015,-97.4706,0.0,11.5,200.0,13.9,'11111222,11111222,11111222' 
TCOON,ioos:station:TCOON:003:1,2008-12-03T18:00:00Z,26.8015,-97.4706,0.0,13.5,195.0,16.9,'11111222,11111222,11111222' 
TCOON,ioos:station:TCOON:003:1,2008-12-03T19:00:00Z,26.8015,-97.4706,0.0,10.2,189.0,11.7,'11111222,11111222,11111222' 
TCOON,ioos:station:TCOON:003:1,2008-12-03T20:00:00Z,26.8015,-97.4706,0.0,9.9,186.0,11.5,'11111222,11111222,11111222' 
TCOON,ioos:station:TCOON:003:1,2008-12-03T21:00:00Z,26.8015,-97.4706,0.0,11.0,188.0,13.0,'11111222,11111222,11111222' 
TCOON,ioos:station:TCOON:003:1,2008-12-03T22:00:00Z,26.8015,-97.4706,0.0,9.8,193.0,11.9,'11111222,11111222,11111222' 
TCOON,ioos:station:TCOON:003:1,2008-12-03T23:00:00Z,26.8015,-97.4706,0.0,8.8,191.0,10.2,'11111222,11111222,11111222' 
TCOON,ioos:station:TCOON:003:1,2008-12-04T00:00:00Z,26.8015,-97.4706,0.0,6.1,190.0,6.8,'11111222,11111222,11111222' 
TCOON,ioos:station:TCOON:003:1,2008-12-04T01:00:00Z,26.8015,-97.4706,0.0,4.3,200.0,4.9,'11111222,11111222,11111222' 
TCOON,ioos:station:TCOON:003:1,2008-12-04T02:00:00Z,26.8015,-97.4706,0.0,4.1,184.0,4.6,'11111222,11111222,11111222' 
TCOON,ioos:station:TCOON:003:1,2008-12-04T03:00:00Z,26.8015,-97.4706,0.0,2.9,220.0,3.3,'11111222,11111222,11111222' 
TCOON,ioos:station:TCOON:003:1,2008-12-04T04:00:00Z,26.8015,-97.4706,0.0,3.6,200.0,4.3,'11111222,11111222,11111222' 
TCOON,ioos:station:TCOON:003:1,2008-12-04T05:00:00Z,26.8015,-97.4706,0.0,1.9,191.0,2.4,'11111222,11111222,11111222' 
TCOON,ioos:station:TCOON:003:1,2008-12-04T06:00:00Z,26.8015,-97.4706,0.0,2.4,10.0,2.8,'11111222,11111222,11111222' 
TCOON,ioos:station:TCOON:003:1,2008-12-04T07:00:00Z,26.8015,-97.4706,0.0,8.8,357.0,10.5,'11111222,11111222,11111222' 
TCOON,ioos:station:TCOON:003:1,2008-12-04T08:00:00Z,26.8015,-97.4706,0.0,9.0,17.0,11.6,'11111222,11111222,11111222' 
TCOON,ioos:station:TCOON:003:1,2008-12-04T09:00:00Z,26.8015,-97.4706,0.0,9.4,12.0,11.1,'11111222,11111222,11111222' 
TCOON,ioos:station:TCOON:003:1,2008-12-04T10:00:00Z,26.8015,-97.4706,0.0,12.2,11.0,14.4,'11111222,11111222,11111222' 
TCOON,ioos:station:TCOON:003:1,2008-12-04T11:00:00Z,26.8015,-97.4706,0.0,11.5,12.0,13.2,'11111222,11111222,11111222' 
TCOON,ioos:station:TCOON:003:1,2008-12-04T12:00:00Z,26.8015,-97.4706,0.0,11.7,7.0,13.8,'11111222,11111222,11111222' 
TCOON,ioos:station:TCOON:003:1,2008-12-04T13:00:00Z,26.8015,-97.4706,0.0,11.0,3.0,13.2,'11111222,11111222,11111222' 
TCOON,ioos:station:TCOON:003:1,2008-12-04T14:00:00Z,26.8015,-97.4706,0.0,12.0,3.0,14.6,'11111222,11111222,11111222' 
TCOON,ioos:station:TCOON:003:1,2008-12-04T15:00:00Z,26.8015,-97.4706,0.0,9.0,3.0,10.8,'11111222,11111222,11111222' 
TCOON,ioos:station:TCOON:003:1,2008-12-04T16:00:00Z,26.8015,-97.4706,0.0,8.9,359.0,10.7,'11111222,11111222,11111222' 
TCOON,ioos:station:TCOON:003:1,2008-12-04T17:00:00Z,26.8015,-97.4706,0.0,9.4,9.0,10.8,'11111222,11111222,11111222' 
TCOON,ioos:station:TCOON:003:1,2008-12-04T18:00:00Z,26.8015,-97.4706,0.0,6.5,10.0,8.4,'11111222,11111222,11111222' 
TCOON,ioos:station:TCOON:003:1,2008-12-04T19:00:00Z,26.8015,-97.4706,0.0,7.9,16.0,9.9,'11111222,11111222,11111222' 
TCOON,ioos:station:TCOON:003:1,2008-12-04T20:00:00Z,26.8015,-97.4706,0.0,6.5,7.0,8.9,'11111222,11111222,11111222' 
TCOON,ioos:station:TCOON:003:1,2008-12-04T21:00:00Z,26.8015,-97.4706,0.0,6.6,22.0,7.7,'11111222,11111222,11111222' 
TCOON,ioos:station:TCOON:003:1,2008-12-04T22:00:00Z,26.8015,-97.4706,0.0,6.4,31.0,8.7,'11111222,11111222,11111222' 
TCOON,ioos:station:TCOON:003:1,2008-12-04T23:00:00Z,26.8015,-97.4706,0.0,5.2,49.0,6.4,'11111222,11111222,11111222' 
TCOON,ioos:station:TCOON:003:1,2008-12-05T00:00:00Z,26.8015,-97.4706,0.0,4.4,41.0,5.0,'11111222,11111222,11111222' 
TCOON,ioos:station:TCOON:003:1,2008-12-05T01:00:00Z,26.8015,-97.4706,0.0,3.2,22.0,3.6,'11111222,11111222,11111222' 
TCOON,ioos:station:TCOON:003:1,2008-12-05T02:00:00Z,26.8015,-97.4706,0.0,2.8,25.0,3.2,'11111222,11111222,11111222' 
TCOON,ioos:station:TCOON:003:1,2008-12-05T03:00:00Z,26.8015,-97.4706,0.0,5.1,39.0,5.9,'11111222,11111222,11111222' 
TCOON,ioos:station:TCOON:003:1,2008-12-05T04:00:00Z,26.8015,-97.4706,0.0,7.5,359.0,8.8,'11111222,11111222,11111222' 
TCOON,ioos:station:TCOON:003:1,2008-12-05T05:00:00Z,26.8015,-97.4706,0.0,7.5,359.0,8.5,'11111222,11111222,11111222' 
TCOON,ioos:station:TCOON:003:1,2008-12-05T06:00:00Z,26.8015,-97.4706,0.0,8.2,355.0,9.3,'11111222,11111222,11111222' 
TCOON,ioos:station:TCOON:003:1,2008-12-05T07:00:00Z,26.8015,-97.4706,0.0,8.6,353.0,9.9,'11111222,11111222,11111222' 
TCOON,ioos:station:TCOON:003:1,2008-12-05T08:00:00Z,26.8015,-97.4706,0.0,6.5,342.0,7.4,'11111222,11111222,11111222' 
TCOON,ioos:station:TCOON:003:1,2008-12-05T09:00:00Z,26.8015,-97.4706,0.0,8.2,360.0,9.3,'11111222,11144222,11111222' 
TCOON,ioos:station:TCOON:003:1,2008-12-05T10:00:00Z,26.8015,-97.4706,0.0,8.6,353.0,10.0,'11111222,11111222,11111222' 
TCOON,ioos:station:TCOON:003:1,2008-12-05T11:00:00Z,26.8015,-97.4706,0.0,8.7,347.0,9.9,'11111222,11111222,11111222' 
TCOON,ioos:station:TCOON:003:1,2008-12-05T12:00:00Z,26.8015,-97.4706,0.0,8.2,352.0,9.7,'11111222,11111222,11111222' 
TCOON,ioos:station:TCOON:003:1,2008-12-05T13:00:00Z,26.8015,-97.4706,0.0,9.2,1.0,10.6,'11111222,11111222,11111222' 
TCOON,ioos:station:TCOON:003:1,2008-12-05T14:00:00Z,26.8015,-97.4706,0.0,8.4,3.0,10.0,'11111222,11111222,11111222' 
TCOON,ioos:station:TCOON:003:1,2008-12-05T15:00:00Z,26.8015,-97.4706,0.0,8.9,1.0,10.1,'11111222,11111222,11111222' 
TCOON,ioos:station:TCOON:003:1,2008-12-05T16:00:00Z,26.8015,-97.4706,0.0,10.7,355.0,11.9,'11111222,11111222,11111222' 
TCOON,ioos:station:TCOON:003:1,2008-12-05T17:00:00Z,26.8015,-97.4706,0.0,11.0,348.0,12.7,'11111222,11111222,11111222' 
TCOON,ioos:station:TCOON:003:1,2008-12-05T18:00:00Z,26.8015,-97.4706,0.0,9.8,352.0,11.7,'11111222,11111222,11111222' 
TCOON,ioos:station:TCOON:003:1,2008-12-05T19:00:00Z,26.8015,-97.4706,0.0,9.3,353.0,10.6,'11111222,11111222,11111222' 
TCOON,ioos:station:TCOON:003:1,2008-12-05T20:00:00Z,26.8015,-97.4706,0.0,10.0,348.0,11.4,'11111222,11111222,11111222' 
TCOON,ioos:station:TCOON:003:1,2008-12-05T21:00:00Z,26.8015,-97.4706,0.0,9.2,1.0,11.1,'11111222,11111222,11111222' 
TCOON,ioos:station:TCOON:003:1,2008-12-05T22:00:00Z,26.8015,-97.4706,0.0,7.9,9.0,9.2,'11111222,11111222,11111222' 
TCOON,ioos:station:TCOON:003:1,2008-12-05T23:00:00Z,26.8015,-97.4706,0.0,6.4,11.0,7.0,'11111222,11111222,11111222' 
TCOON,ioos:station:TCOON:003:1,2008-12-06T00:00:00Z,26.8015,-97.4706,0.0,5.7,6.0,6.5,'11111222,11111222,11111222' 
TCOON,ioos:station:TCOON:003:1,2008-12-06T01:00:00Z,26.8015,-97.4706,0.0,5.5,359.0,6.2,'11111222,11111222,11111222' 
TCOON,ioos:station:TCOON:003:1,2008-12-06T02:00:00Z,26.8015,-97.4706,0.0,5.4,356.0,6.2,'11111222,11111222,11111222' 
TCOON,ioos:station:TCOON:003:1,2008-12-06T03:00:00Z,26.8015,-97.4706,0.0,5.3,358.0,6.2,'11111222,11111222,11111222' 
TCOON,ioos:station:TCOON:003:1,2008-12-06T04:00:00Z,26.8015,-97.4706,0.0,4.4,1.0,5.3,'11111222,11111222,11111222' 
TCOON,ioos:station:TCOON:003:1,2008-12-06T05:00:00Z,26.8015,-97.4706,0.0,4.9,2.0,5.4,'11111222,11111222,11111222' 
TCOON,ioos:station:TCOON:003:1,2008-12-06T06:00:00Z,26.8015,-97.4706,0.0,3.5,2.0,4.1,'11111222,11111222,11111222' 
TCOON,ioos:station:TCOON:003:1,2008-12-06T07:00:00Z,26.8015,-97.4706,0.0,3.2,349.0,3.7,'11111222,11111222,11111222' 
TCOON,ioos:station:TCOON:003:1,2008-12-06T08:00:00Z,26.8015,-97.4706,0.0,4.0,356.0,4.5,'11111222,11111222,11111222' 
TCOON,ioos:station:TCOON:003:1,2008-12-06T09:00:00Z,26.8015,-97.4706,0.0,3.4,2.0,4.0,'11111222,11111222,11111222' 
TCOON,ioos:station:TCOON:003:1,2008-12-06T10:00:00Z,26.8015,-97.4706,0.0,3.5,4.0,4.0,'11111222,11111222,11111222' 
TCOON,ioos:station:TCOON:003:1,2008-12-06T11:00:00Z,26.8015,-97.4706,0.0,3.4,360.0,3.8,'11111222,11144222,11111222' 
TCOON,ioos:station:TCOON:003:1,2008-12-06T12:00:00Z,26.8015,-97.4706,0.0,2.9,356.0,3.4,'11111222,11111222,11111222' 
TCOON,ioos:station:TCOON:003:1,2008-12-06T13:00:00Z,26.8015,-97.4706,0.0,3.2,351.0,3.6,'11111222,11111222,11111222' 
TCOON,ioos:station:TCOON:003:1,2008-12-06T14:00:00Z,26.8015,-97.4706,0.0,2.9,354.0,3.4,'11111222,11111222,11111222' 
TCOON,ioos:station:TCOON:003:1,2008-12-06T15:00:00Z,26.8015,-97.4706,0.0,3.6,356.0,4.1,'11111222,11111222,11111222' 
TCOON,ioos:station:TCOON:003:1,2008-12-06T16:00:00Z,26.8015,-97.4706,0.0,1.2,311.0,1.4,'11111222,11111222,11111222' 
TCOON,ioos:station:TCOON:003:1,2008-12-06T17:00:00Z,26.8015,-97.4706,0.0,2.6,15.0,3.0,'11111222,11111222,11111222' 
TCOON,ioos:station:TCOON:003:1,2008-12-06T18:00:00Z,26.8015,-97.4706,0.0,3.5,26.0,5.3,'11111222,11111222,11111222' 
TCOON,ioos:station:TCOON:003:1,2008-12-06T19:00:00Z,26.8015,-97.4706,0.0,3.1,56.0,4.1,'11111222,11111222,11111222' 
TCOON,ioos:station:TCOON:003:1,2008-12-06T20:00:00Z,26.8015,-97.4706,0.0,4.8,48.0,6.0,'11111222,11111222,11111222' 
TCOON,ioos:station:TCOON:003:1,2008-12-06T21:00:00Z,26.8015,-97.4706,0.0,4.3,84.0,5.2,'11111222,11111222,11111222' 
TCOON,ioos:station:TCOON:003:1,2008-12-06T22:00:00Z,26.8015,-97.4706,0.0,3.8,82.0,4.8,'11111222,11111222,11111222' 
TCOON,ioos:station:TCOON:003:1,2008-12-07T00:00:00Z,26.8015,-97.4706,0.0,2.6,73.0,2.9,'11111222,11111222,11111222' 
TCOON,ioos:station:TCOON:003:1,2008-12-07T01:00:00Z,26.8015,-97.4706,0.0,2.9,71.0,3.2,'11111222,11111222,11111222' 
TCOON,ioos:station:TCOON:003:1,2008-12-07T02:00:00Z,26.8015,-97.4706,0.0,1.9,108.0,2.1,'11111222,11111222,11111222' 
TCOON,ioos:station:TCOON:003:1,2008-12-07T03:00:00Z,26.8015,-97.4706,0.0,1.2,109.0,1.4,'11111222,11111222,11111222' 
TCOON,ioos:station:TCOON:003:1,2008-12-07T04:00:00Z,26.8015,-97.4706,0.0,0.0,265.0,99.0,'11111222,11111222,11144222' 
TCOON,ioos:station:TCOON:003:1,2008-12-07T05:00:00Z,26.8015,-97.4706,0.0,1.0,330.0,1.1,'11111222,11111222,11111222' 
TCOON,ioos:station:TCOON:003:1,2008-12-07T06:00:00Z,26.8015,-97.4706,0.0,1.3,343.0,1.5,'11111222,11111222,11111222' 
TCOON,ioos:station:TCOON:003:1,2008-12-07T07:00:00Z,26.8015,-97.4706,0.0,2.2,342.0,2.5,'11111222,11111222,11111222' 
TCOON,ioos:station:TCOON:003:1,2008-12-07T08:00:00Z,26.8015,-97.4706,0.0,3.0,328.0,3.2,'11111222,11111222,11111222' 
TCOON,ioos:station:TCOON:003:1,2008-12-07T09:00:00Z,26.8015,-97.4706,0.0,3.1,333.0,3.7,'11111222,11111222,11111222' 
TCOON,ioos:station:TCOON:003:1,2008-12-07T10:00:00Z,26.8015,-97.4706,0.0,3.9,334.0,4.4,'11111222,11111222,11111222' 
TCOON,ioos:station:TCOON:003:1,2008-12-07T11:00:00Z,26.8015,-97.4706,0.0,3.9,347.0,4.5,'11111222,11111222,11111222' 
TCOON,ioos:station:TCOON:003:1,2008-12-07T12:00:00Z,26.8015,-97.4706,0.0,2.8,327.0,3.3,'11111222,11111222,11111222' 
TCOON,ioos:station:TCOON:003:1,2008-12-07T13:00:00Z,26.8015,-97.4706,0.0,3.5,338.0,3.9,'11111222,11111222,11111222' 
TCOON,ioos:station:TCOON:003:1,2008-12-07T14:00:00Z,26.8015,-97.4706,0.0,3.2,337.0,3.6,'11111222,11111222,11111222' 
TCOON,ioos:station:TCOON:003:1,2008-12-07T15:00:00Z,26.8015,-97.4706,0.0,1.8,345.0,2.1,'11111222,11111222,11111222' 
TCOON,ioos:station:TCOON:003:1,2008-12-07T16:00:00Z,26.8015,-97.4706,0.0,0.1,327.0,0.4,'11111222,11111222,11111222' 
TCOON,ioos:station:TCOON:003:1,2008-12-07T17:00:00Z,26.8015,-97.4706,0.0,4.6,119.0,6.1,'11111222,11111222,11111222' 
TCOON,ioos:station:TCOON:003:1,2008-12-07T18:00:00Z,26.8015,-97.4706,0.0,4.7,125.0,6.0,'11111222,11111222,11111222' 
TCOON,ioos:station:TCOON:003:1,2008-12-07T19:00:00Z,26.8015,-97.4706,0.0,4.5,136.0,5.2,'11111222,11111222,11111222' 
TCOON,ioos:station:TCOON:003:1,2008-12-07T20:00:00Z,26.8015,-97.4706,0.0,4.1,133.0,5.0,'11111222,11111222,11111222' 
TCOON,ioos:station:TCOON:003:1,2008-12-07T21:00:00Z,26.8015,-97.4706,0.0,5.3,132.0,6.4,'11111222,11111222,11111222' 
TCOON,ioos:station:TCOON:003:1,2008-12-07T22:00:00Z,26.8015,-97.4706,0.0,7.9,130.0,8.9,'11111222,11111222,11111222' 
TCOON,ioos:station:TCOON:003:1,2008-12-07T23:00:00Z,26.8015,-97.4706,0.0,4.8,143.0,5.5,'11111222,11111222,11111222' 
TCOON,ioos:station:TCOON:003:1,2008-12-08T00:00:00Z,26.8015,-97.4706,0.0,4.2,143.0,4.8,'11111222,11111222,11111222' 
TCOON,ioos:station:TCOON:003:1,2008-12-08T01:00:00Z,26.8015,-97.4706,0.0,3.9,154.0,4.3,'11111222,11111222,11111222' 
TCOON,ioos:station:TCOON:003:1,2008-12-08T02:00:00Z,26.8015,-97.4706,0.0,4.2,154.0,4.6,'11111222,11111222,11111222' 
TCOON,ioos:station:TCOON:003:1,2008-12-08T03:00:00Z,26.8015,-97.4706,0.0,4.0,155.0,4.5,'11111222,11111222,11111222' 
TCOON,ioos:station:TCOON:003:1,2008-12-08T04:00:00Z,26.8015,-97.4706,0.0,4.2,160.0,4.9,'11111222,11111222,11111222' 
TCOON,ioos:station:TCOON:003:1,2008-12-08T05:00:00Z,26.8015,-97.4706,0.0,4.3,149.0,5.0,'11111222,11111222,11111222' 
TCOON,ioos:station:TCOON:003:1,2008-12-08T06:00:00Z,26.8015,-97.4706,0.0,2.3,184.0,2.3,'11111222,11111222,11111222' 
TCOON,ioos:station:TCOON:003:1,2008-12-08T07:00:00Z,26.8015,-97.4706,0.0,3.1,218.0,3.3,'11111222,11111222,11111222' 
TCOON,ioos:station:TCOON:003:1,2008-12-08T08:00:00Z,26.8015,-97.4706,0.0,4.3,167.0,4.8,'11111222,11111222,11111222' 
TCOON,ioos:station:TCOON:003:1,2008-12-08T09:00:00Z,26.8015,-97.4706,0.0,4.0,163.0,4.5,'11111222,11111222,11111222' 
TCOON,ioos:station:TCOON:003:1,2008-12-08T10:00:00Z,26.8015,-97.4706,0.0,4.8,153.0,5.3,'11111222,11111222,11111222' 
TCOON,ioos:station:TCOON:003:1,2008-12-08T11:00:00Z,26.8015,-97.4706,0.0,4.4,158.0,4.7,'11111222,11111222,11111222' 
TCOON,ioos:station:TCOON:003:1,2008-12-08T12:00:00Z,26.8015,-97.4706,0.0,4.0,166.0,4.5,'11111222,11111222,11111222' 
TCOON,ioos:station:TCOON:003:1,2008-12-08T13:00:00Z,26.8015,-97.4706,0.0,5.8,160.0,6.6,'11111222,11111222,11111222' 
TCOON,ioos:station:TCOON:003:1,2008-12-08T14:00:00Z,26.8015,-97.4706,0.0,4.2,182.0,4.7,'11111222,11111222,11111222' 
TCOON,ioos:station:TCOON:003:1,2008-12-08T15:00:00Z,26.8015,-97.4706,0.0,6.5,174.0,7.4,'11111222,11111222,11111222' 
TCOON,ioos:station:TCOON:003:1,2008-12-08T16:00:00Z,26.8015,-97.4706,0.0,8.3,179.0,9.8,'11111222,11111222,11111222' 
TCOON,ioos:station:TCOON:003:1,2008-12-08T17:00:00Z,26.8015,-97.4706,0.0,8.4,172.0,9.6,'11111222,11111222,11111222' 
TCOON,ioos:station:TCOON:003:1,2008-12-08T18:00:00Z,26.8015,-97.4706,0.0,9.2,166.0,10.4,'11111222,11111222,11111222' 
TCOON,ioos:station:TCOON:003:1,2008-12-08T19:00:00Z,26.8015,-97.4706,0.0,10.2,168.0,12.1,'11111222,11111222,11111222' 
TCOON,ioos:station:TCOON:003:1,2008-12-08T20:00:00Z,26.8015,-97.4706,0.0,10.9,164.0,12.9,'11111222,11111222,11111222' 
TCOON,ioos:station:TCOON:003:1,2008-12-08T21:00:00Z,26.8015,-97.4706,0.0,10.1,165.0,11.6,'11111222,11111222,11111222' 
TCOON,ioos:station:TCOON:003:1,2008-12-08T22:00:00Z,26.8015,-97.4706,0.0,10.5,164.0,12.4,'11111222,11111222,11111222' 
TCOON,ioos:station:TCOON:003:1,2008-12-08T23:00:00Z,26.8015,-97.4706,0.0,8.6,172.0,10.2,'11111222,11111222,11111222' 
TCOON,ioos:station:TCOON:003:1,2008-12-09T00:00:00Z,26.8015,-97.4706,0.0,7.7,173.0,8.7,'11111222,11111222,11111222' 
TCOON,ioos:station:TCOON:003:1,2008-12-09T01:00:00Z,26.8015,-97.4706,0.0,7.1,178.0,8.1,'11111222,11111222,11111222' 
TCOON,ioos:station:TCOON:003:1,2008-12-09T02:00:00Z,26.8015,-97.4706,0.0,8.5,174.0,9.5,'11111222,11111222,11111222' 
TCOON,ioos:station:TCOON:003:1,2008-12-09T03:00:00Z,26.8015,-97.4706,0.0,7.8,174.0,8.7,'11111222,11111222,11111222' 
TCOON,ioos:station:TCOON:003:1,2008-12-09T04:00:00Z,26.8015,-97.4706,0.0,9.0,175.0,10.0,'11111222,11111222,11111222' 
TCOON,ioos:station:TCOON:003:1,2008-12-09T05:00:00Z,26.8015,-97.4706,0.0,9.4,179.0,10.6,'11111222,11111222,11111222' 
TCOON,ioos:station:TCOON:003:1,2008-12-09T06:00:00Z,26.8015,-97.4706,0.0,8.4,186.0,9.7,'11111222,11111222,11111222' 
TCOON,ioos:station:TCOON:003:1,2008-12-09T07:00:00Z,26.8015,-97.4706,0.0,9.3,179.0,10.7,'11111222,11111222,11111222' 
TCOON,ioos:station:TCOON:003:1,2008-12-09T08:00:00Z,26.8015,-97.4706,0.0,9.6,193.0,10.8,'11111222,11111222,11111222' 
TCOON,ioos:station:TCOON:003:1,2008-12-09T09:00:00Z,26.8015,-97.4706,0.0,6.8,182.0,7.3,'11111222,11111222,11111222' 
TCOON,ioos:station:TCOON:003:1,2008-12-09T10:00:00Z,26.8015,-97.4706,0.0,8.1,174.0,9.9,'11111222,11111222,11111222' 
TCOON,ioos:station:TCOON:003:1,2008-12-09T11:00:00Z,26.8015,-97.4706,0.0,6.7,187.0,7.5,'11111222,11111222,11111222' 
TCOON,ioos:station:TCOON:003:1,2008-12-09T12:00:00Z,26.8015,-97.4706,0.0,10.8,189.0,13.0,'11111222,11111222,11111222' 
TCOON,ioos:station:TCOON:003:1,2008-12-09T13:00:00Z,26.8015,-97.4706,0.0,9.4,189.0,12.3,'11111222,11111222,11111222' 
TCOON,ioos:station:TCOON:003:1,2008-12-09T14:00:00Z,26.8015,-97.4706,0.0,9.8,197.0,12.3,'11111222,11111222,11111222' 